Location: Brachbach
(49.1847°N, 9.7240°E)
Time: 05:56:46
(UTC+00:00)

PCSat - Pass Details

Date: 18 March 2026
Orbit: 780 x 790 km, 67.1° (Epoch: 13 April)

Event Time Altitude Azimuth Distance (km) Brightness Sun altitude
Rises 04:00:00 0° 326° (NW) 3,296 12.6 -15.1°
Reaches altitude 10° 04:02:48 10° 338° (NNW) 2,365 12.0 -14.7°
Maximum altitude 04:07:23 27° 36° (NE) 1,479 11.6 -14.0°
Drops below altitude 10° 04:11:58 10° 94° (E) 2,355 13.3 -13.2°
Sets 04:14:43 0° 107° (ESE) 3,280 13.9 -12.8°
